THOR ABLESTAR DEB, 48820

Orbit data source: Space-Track

THOR ABLESTAR DEB, 48820 is space debris in LEO originally from a launch on Thu, 29 Jun 1961 UTC launched from the Air Force Eastern Test Range (AFETR). Debris objects in space refer to the collection of defunct objects orbiting the Earth. Examples of debris include non-operational satellites, rocket bodies, and fragments generated from explosions, collisions, or faulty payload assembly.

Loading next visibility...
Identifier
48820, 1961-015MY
Orbit
LEO
Country
Flag of USUS
Related business
Manufacturer
Unknown
Mission
Spacecraft
Bus & Motor
Unknown
Mass
Unknown
Launch date (UTC)
1961-06-29 (65 years ago)
Launch vehicle
Unknown
Launch site
Air Force Eastern Test Range (AFETR)
Object type
Payload
Rocket body
Debris
Shape & HBR
Unknown shape, 0.1 m
Radar Cross Section
Small (<0.1 m²)

Expand to show TLE details & history
Last TLE update: 3 days ago

TLE from 3 days ago
0 THOR ABLESTAR DEB
1 48820U 61015MY  26116.58594368  .00000448  00000-0  56826-3 0  9995
2 48820  65.8490  68.4606 0133835 190.5135 169.3122 13.69422357621491
Epoch: 2026-04-26T14:03Z
TLE epoch observation values (Epoch: 2026-04-26T14:03:45.533Z)
Latitude
-0.00003°
Longitude
2.93303°
Altitude
1,100.736 km
Speed
7.254 km/s
True Right ascension
04h 33m 50s
True Declination
0° 00' 00"
Sunlit
Object was in daylight at epoch
Visualization orbit readout
Latitude
Unknown
Longitude
Unknown
Altitude
Unknown
Speed
Unknown
Apparent Right ascension
Unknown
Apparent Declination
Unknown
Sunlit
N/A
Visualization observer readout
Local Sidereal Time
12:21:04
Azimuth
Unknown
Elevation
Unknown
Doppler factor
Unknown
Orbital elements
Apogee altitude
1,098.912 km
Perigee altitude
901.417 km
Semi-major axis
7,378.301 km
Eccentricity
0.01338
Inclination
65.849°
RAAN
68.4606°
Arg. of periapsis
190.5135°
True anomaly
169.59202°
Mean anomaly
169.3122°
Eccentric anomaly
169.45257°
Mean motion
3.42459 °/min
Orbital period
105.12 mins
BSTAR
0.00056826
Loading maneuver chart data...
Computing Atmospheric mass density...
Loading historical data...
Loading historical data...
Loading historical data...
Loading historical data...
Loading historical data...
Loading historical data...
Loading historical data...

Documentation

Showing up to 5 results
|